Location: Unspecified
(0.0000°N, 0.0000°E)
Time: 18:27:18
(UTC+00:00)

Explorer 7 - Visible Passes

Search period start: 26 May 2022 00:00
Search period end: 05 June 2022 00:00
Orbit: 482 x 670 km, 50.3° (Epoch: 25 May)

Date Brightness Start Highest point End Pass type
(mag) Time Alt. Az. Time Alt. Az. Time Alt. Az.
26 May 9.3 19:34:12 10° NNE 19:34:29 11° NNE 19:34:29 11° NNE visible
27 May 8.6 19:35:47 10° N 19:37:54 22° NNE 19:37:54 22° NNE visible
28 May 7.5 19:38:12 10° NNW 19:41:22 45° NNE 19:41:22 45° NNE visible
29 May 7.0 19:41:06 10° NW 19:44:53 68° W 19:44:53 68° W visible
30 May 8.1 19:44:26 10° WNW 19:48:09 33° SW 19:48:26 33° SW visible
31 May 9.1 19:48:25 10° W 19:51:11 17° SW 19:52:00 16° SW visible
03 Jun 9.7 04:36:46 10° SSE 04:38:38 12° SE 04:40:30 10° ESE visible
03 Jun 8.4 18:16:10 10° WNW 18:19:43 31° SW 18:23:27 10° SSE visible
04 Jun 9.1 04:37:55 10° S 04:41:40 23° SE 04:45:14 10° ENE visible
04 Jun 9.4 18:20:12 10° W 18:22:42 16° SW 18:25:17 10° SSW visible
